N5ZKK Weather Reports


Display with metric or nautical units.
time (UTC)temp
F
wind
direction
speed
MPH
gust
MPH
rain 1hr
in
rain 24hr
in
rain mn
in
humidity
%
barometer
mb
20260508104533 61 146 0.0 2.0 0.00 0.00 0.00 94 1016.8
20260508103517 61 0.0 0.0 0.00 0.00 0.00 93 1016.7
20260508102519 61 68 1.0 2.0 0.00 0.00 0.00 93 1016.6
20260508102513 60 0 0.0 0.0 0.00 0.00 0.00 93 1016.0
20260508101522 61 0.0 0.0 0.00 0.00 0.00 93 1016.6
20260508100524 61 0.0 0.0 0.00 0.00 0.00 92 1016.6
20260508095526 61 0.0 0.0 0.00 0.00 0.00 92 1016.9
20260508095513 60 72 1.0 2.0 0.00 0.00 0.00 91 1016.2
20260508094528 61 45 0.0 3.0 0.00 0.00 0.00 91 1016.8
20260508093551 61 59 1.0 3.0 0.00 0.00 0.00 91 1016.9
20260508092515 61 23 0.0 2.0 0.00 0.00 0.00 90 1016.9
20260508092513 60 0 0.0 0.0 0.00 0.00 0.00 90 1016.3
20260508091537 61 0.0 0.0 0.00 0.00 0.00 90 1017.0
20260508090520 61 51 1.0 2.0 0.00 0.00 0.00 89 1016.6
20260508085522 61 69 1.0 3.0 0.00 0.00 0.00 89 1016.8
20260508085513 60 45 1.0 2.0 0.00 0.00 0.00 89 1016.1
20260508084524 61 73 2.0 3.0 0.00 0.00 0.00 89 1016.8
20260508083520 61 145 3.0 5.0 0.00 0.00 0.00 89 1016.7
20260508082517 61 126 1.0 3.0 0.00 0.00 0.00 89 1016.7
20260508082513 60 113 1.0 2.0 0.00 0.00 0.00 89 1016.3
20260508081531 61 106 0.0 2.0 0.00 0.00 0.00 89 1016.9
20260508080553 61 42 1.0 3.0 0.00 0.00 0.00 89 1017.1
20260508075517 61 0.0 0.0 0.00 0.00 0.00 89 1017.1
20260508075513 61 0 0.0 0.0 0.00 0.00 0.00 89 1016.5
20260508074539 61 44 1.0 2.0 0.00 0.00 0.00 89 1017.3
20260508073521 61 63 1.0 2.0 0.00 0.00 0.00 88 1017.4
20260508072525 61 0.0 0.0 0.00 0.00 0.00 88 1017.5
20260508072513 61 22 0.0 1.0 0.00 0.00 0.00 87 1016.8
20260508071526 61 0.0 0.0 0.00 0.00 0.00 87 1017.5
20260508070528 61 107 1.0 3.0 0.00 0.00 0.00 87 1017.4
20260508065530 61 158 0.0 1.0 0.00 0.00 0.00 87 1017.5
20260508065513 61 112 0.0 1.0 0.00 0.00 0.00 87 1016.8
20260508064532 61 0.0 0.0 0.00 0.00 0.00 87 1017.6
20260508063516 61 0.0 0.0 0.00 0.00 0.00 86 1017.5
20260508062538 61 50 2.0 3.0 0.00 0.00 0.00 86 1017.3
20260508062513 61 52 0.0 1.0 0.00 0.00 0.00 87 1016.5
20260508061520 61 270 0.0 1.0 0.00 0.00 0.00 87 1017.2
20260508060543 61 41 2.0 3.0 0.00 0.00 0.00 87 1017.0
20260508055539 61 355 2.0 4.0 0.00 0.00 0.00 86 1017.0
20260508055513 61 6 2.0 3.0 0.00 0.00 0.00 86 1016.3
20260508054515 61 22 2.0 3.0 0.00 0.00 0.00 86 1017.4
20260508053529 61 0.0 0.0 0.00 0.00 0.00 86 1017.8
20260508052531 61 90 0.0 2.0 0.00 0.00 0.00 85 1018.0
20260508052513 61 0 0.0 0.0 0.00 0.00 0.00 85 1017.5
20260508051515 61 0.0 0.0 0.00 0.00 0.00 86 1018.1
20260508050538 61 0.0 0.0 0.00 0.00 0.00 85 1018.1
20260508045520 61 0.0 0.0 0.00 0.00 0.00 86 1018.3
20260508045513 61 251 0.0 2.0 0.00 0.00 0.00 86 1017.5
20260508044522 61 283 1.0 3.0 0.00 0.00 0.00 86 1017.7
20260508043544 61 34 2.0 4.0 0.00 0.00 0.00 85 1018.1
20260508042527 62 0.0 0.0 0.00 0.00 0.00 85 1018.2
20260508042513 61 22 1.0 3.0 0.00 0.00 0.00 85 1017.4
20260508041609 62 75 2.0 4.0 0.00 0.00 0.00 85 1018.1
20260508040531 62 0.0 0.0 0.00 0.00 0.00 84 1018.5
20260508035535 62 32 1.0 2.0 0.00 0.00 0.00 85 1018.7
20260508035513 61 293 2.0 4.0 0.00 0.00 0.00 85 1018.1
20260508034517 61 271 1.0 5.0 0.00 0.00 0.00 85 1018.1
20260508033519 61 343 1.0 3.0 0.00 0.00 0.00 86 1017.4
20260508032522 61 296 2.0 5.0 0.00 0.00 0.00 86 1016.7
20260508032513 61 255 2.0 3.0 0.00 0.00 0.00 86 1015.4
20260508031518 61 87 4.0 6.0 0.00 0.00 0.00 86 1016.1
20260508030526 62 26 2.0 5.0 0.00 0.00 0.00 85 1018.1
20260508025548 62 5 1.0 3.0 0.00 0.00 0.00 85 1017.6
20260508025513 61 135 0.0 2.0 0.00 0.00 0.00 85 1016.9
20260508024530 62 98 2.0 3.0 0.00 0.00 0.00 85 1018.5
20260508023533 62 0.0 0.0 0.00 0.00 0.00 85 1018.1
20260508022517 62 0.0 0.0 0.00 0.00 0.00 84 1018.1
20260508022513 61 108 0.0 2.0 0.00 0.00 0.00 84 1017.5
20260508021519 62 85 1.0 2.0 0.00 0.00 0.00 83 1018.2
20260508020541 62 0.0 0.0 0.00 0.00 0.00 83 1018.3
20260508015523 62 258 1.0 3.0 0.00 0.00 0.00 83 1018.0
20260508015513 61 268 0.0 1.0 0.00 0.00 0.00 84 1017.1
20260508014526 62 0.0 0.0 0.00 0.00 0.00 85 1017.3
20260508013528 62 20 2.0 3.0 0.00 0.00 0.00 84 1017.4
20260508012530 62 191 2.0 3.0 0.00 0.00 0.00 84 1017.5
20260508012513 61 341 0.0 1.0 0.00 0.00 0.00 84 1016.7
20260508011532 62 277 4.0 8.0 0.00 0.00 0.00 85 1017.5
20260508010516 62 95 3.0 5.0 0.00 0.00 0.00 84 1016.4
20260508005518 62 12 1.0 3.0 0.00 0.00 0.00 83 1017.4
20260508005513 62 351 1.0 3.0 0.00 0.00 0.00 83 1016.3
20260508004521 62 261 3.0 5.0 0.00 0.00 0.00 83 1016.9
20260508003517 63 236 1.0 3.0 0.00 0.00 0.00 84 1016.5
20260508002545 62 42 2.0 3.0 0.00 0.00 0.00 83 1016.5
20260508002513 62 76 0.0 1.0 0.00 0.00 0.00 83 1015.8
20260508001527 62 23 0.0 1.0 0.00 0.00 0.00 82 1016.6
20260508000530 62 43 2.0 4.0 0.00 0.00 0.00 83 1016.4
20260507235533 62 39 2.0 5.0 0.00 0.00 0.00 83 1016.6
20260507235513 62 14 2.0 4.0 0.00 0.00 0.00 83 1015.8
20260507234515 62 55 5.0 9.0 0.00 0.00 0.00 83 1016.8
20260507233519 62 55 3.0 5.0 0.00 0.00 0.00 84 1017.3
20260507232520 62 68 2.0 4.0 0.00 0.00 0.00 85 1017.6
20260507232513 62 11 2.0 4.0 0.00 0.00 0.00 85 1017.0
20260507231522 62 336 2.0 4.0 0.00 0.00 0.00 85 1017.8
20260507230524 62 93 3.0 4.0 0.00 0.00 0.00 86 1017.9
20260507225547 61 36 4.0 7.0 0.00 0.00 0.00 85 1018.7
20260507225513 61 46 4.0 7.0 0.00 0.00 0.00 85 1017.8
20260507224528 62 284 7.0 12.0 0.00 0.00 0.00 87 1017.4
20260507223531 62 79 3.0 4.0 0.00 0.00 0.00 84 1017.7
20260507222516 62 18 4.0 7.0 0.00 0.00 0.00 82 1017.9
20260507222513 62 56 3.0 7.0 0.00 0.00 0.00 82 1017.4
20260507221518 62 54 4.0 9.0 0.00 0.00 0.00 82 1018.1
20260507220540 62 108 3.0 5.0 0.00 0.00 0.00 83 1018.3
20260507215516 62 16 4.0 7.0 0.00 0.00 0.00 82 1018.3
20260507215513 62 29 5.0 7.0 0.00 0.00 0.00 81 1017.7
20260507214524 63 49 3.0 6.0 0.00 0.00 0.00 81 1019.2
20260507213527 63 28 2.0 4.0 0.00 0.00 0.00 81 1019.2
20260507212529 63 33 3.0 4.0 0.00 0.00 0.00 81 1019.4
20260507212513 62 26 3.0 5.0 0.00 0.00 0.00 80 1018.8
20260507211531 63 0 4.0 7.0 0.00 0.00 0.00 80 1019.6
20260507210516 63 42 5.0 7.0 0.00 0.00 0.00 80 1019.4
20260507205518 64 30 4.0 7.0 0.00 0.00 0.00 79 1019.4
20260507205513 64 27 4.0 6.0 0.00 0.00 0.00 79 1018.3
20260507204520 65 11 2.0 4.0 0.00 0.00 0.00 78 1019.5
20260507203522 65 25 4.0 6.0 0.00 0.00 0.00 78 1019.6
20260507202605 64 16 6.0 8.0 0.00 0.00 0.00 78 1019.4
20260507202513 64 22 5.0 7.0 0.00 0.00 0.00 79 1018.2
20260507201527 64 17 4.0 8.0 0.00 0.00 0.00 79 1019.2
20260507200529 64 1 6.0 9.0 0.00 0.00 0.00 79 1019.0
20260507195532 65 16 6.0 9.0 0.00 0.00 0.00 78 1019.4
20260507195513 64 32 4.0 7.0 0.00 0.00 0.00 78 1018.3
20260507194515 64 44 5.0 8.0 0.00 0.00 0.00 78 1019.4
20260507193537 65 57 5.0 8.0 0.00 0.00 0.00 78 1019.1
20260507192520 63 41 6.0 9.0 0.00 0.00 0.00 81 1019.2
20260507192513 63 46 6.0 8.0 0.00 0.00 0.00 81 1018.7
20260507191536 63 32 5.0 7.0 0.00 0.00 0.00 82 1019.5
20260507190518 62 39 6.0 8.0 0.00 0.00 0.00 83 1020.0
20260507185540 62 25 5.0 8.0 0.00 0.00 0.00 83 1020.1
20260507185513 62 30 4.0 6.0 0.00 0.00 0.00 82 1019.5
20260507184543 63 25 5.0 8.0 0.00 0.00 0.00 81 1020.4
20260507183525 65 22 5.0 8.0 0.00 0.00 0.00 79 1020.2
20260507182527 65 22 7.0 11.0 0.00 0.00 0.00 78 1020.4
20260507182513 64 36 5.0 10.0 0.00 0.00 0.00 79 1019.8
20260507181530 64 354 6.0 8.0 0.00 0.00 0.00 80 1020.8
20260507180532 64 39 4.0 7.0 0.00 0.00 0.00 80 1020.8
20260507175516 65 14 6.0 9.0 0.00 0.00 0.00 79 1020.1
20260507175513 64 17 5.0 10.0 0.00 0.00 0.00 80 1019.0
20260507174519 65 352 6.0 9.0 0.00 0.00 0.00 81 1020.2
20260507173521 63 10 5.0 7.0 0.00 0.00 0.00 85 1020.5
20260507172543 63 6 4.0 6.0 0.00 0.00 0.00 83 1020.4
20260507172513 62 14 1.0 4.0 0.00 0.00 0.00 83 1019.3
20260507171525 62 30 3.0 5.0 0.00 0.00 0.00 85 1020.1
20260507170547 61 46 5.0 8.0 0.00 0.00 0.00 84 1020.4
20260507165523 61 74 4.0 7.0 0.00 0.00 0.00 85 1020.3
20260507165513 61 64 5.0 8.0 0.00 0.00 0.00 85 1019.7
20260507164539 61 46 5.0 9.0 0.00 0.00 0.00 87 1020.4
20260507163517 60 45 2.0 4.0 0.00 0.00 0.00 90 1020.8
20260507162518 59 22 4.0 9.0 0.00 0.00 0.00 91 1020.8
20260507162513 58 359 4.0 8.0 0.00 0.00 0.00 91 1020.3
20260507161520 58 337 4.0 8.0 0.00 0.00 0.00 91 1020.6
20260507160522 58 9 4.0 6.0 0.00 0.00 0.00 93 1021.1
20260507155524 57 19 3.0 6.0 0.00 0.00 0.00 93 1020.6
20260507155513 56 25 3.0 6.0 0.00 0.00 0.00 94 1020.2
20260507154542 57 31 5.0 6.0 0.00 0.00 0.00 95 1020.1
20260507153524 56 15 5.0 7.0 0.00 0.00 0.00 97 1020.1
20260507152525 55 28 9.0 15.0 0.00 0.01 0.00 99 1020.4
20260507152513 55 9 6.0 11.0 0.00 0.00 0.00 99 1020.9
20260507151528 55 15 6.0 15.0 0.00 0.04 0.00 99 1020.8
20260507150530 55 28 4.0 10.0 0.00 0.12 0.00 99 1021.9
20260507145532 55 26 3.0 7.0 0.00 0.13 0.00 99 1021.5
20260507145513 54 23 3.0 5.0 0.00 0.13 0.00 98 1021.5
20260507144537 55 21 5.0 9.0 0.00 0.14 0.00 98 1021.4
20260507143518 55 26 3.0 8.0 0.00 0.14 0.00 98 1021.2
20260507142520 55 21 7.0 11.0 0.00 0.14 0.00 97 1020.9
20260507142513 55 50 5.0 8.0 0.00 0.13 0.00 97 1020.7
20260507141523 56 32 6.0 14.0 0.00 0.14 0.00 97 1020.6
20260507140520 56 23 9.0 14.0 0.00 0.14 0.00 97 1020.2
20260507135516 56 15 7.0 10.0 0.00 0.14 0.00 97 1020.8
20260507135513 55 21 7.0 12.0 0.00 0.15 0.00 98 1020.9
20260507134518 56 356 5.0 8.0 0.00 0.15 0.00 98 1020.6
20260507133515 56 24 6.0 8.0 0.00 0.15 0.00 98 1020.9
20260507132517 56 19 5.0 8.0 0.00 0.15 0.00 98 1020.9
20260507132513 56 38 2.0 6.0 0.00 0.15 0.00 98 1020.7
20260507131519 56 36 6.0 9.0 0.00 0.15 0.00 98 1020.8
20260507130521 56 24 5.0 9.0 0.00 0.15 0.00 98 1020.8
20260507125523 56 25 4.0 6.0 0.00 0.15 0.00 97 1020.6
20260507125513 56 359 4.0 7.0 0.00 0.15 0.00 97 1020.4
20260507124525 56 30 7.0 10.0 0.00 0.15 0.00 97 1020.0
20260507123528 57 24 6.0 8.0 0.00 0.15 0.00 97 1020.0
20260507122529 57 34 4.0 11.0 0.00 0.15 0.00 97 1019.7
20260507122513 56 16 5.0 9.0 0.00 0.15 0.00 97 1019.1
20260507121552 57 37 7.0 10.0 0.00 0.15 0.00 96 1019.3
20260507120516 57 31 6.0 10.0 0.00 0.15 0.00 96 1019.4
20260507115518 57 9 7.0 13.0 0.00 0.15 0.00 96 1019.5
20260507115513 57 18 8.0 14.0 0.00 0.15 0.00 95 1019.4
20260507114520 57 21 7.0 12.0 0.00 0.15 0.00 95 1019.5
20260507113524 58 20 7.0 12.0 0.00 0.15 0.00 95 1019.3
20260507112518 58 20 5.0 12.0 0.00 0.15 0.00 95 1019.2
20260507112513 57 351 4.0 7.0 0.00 0.15 0.00 94 1018.8
20260507111527 58 16 5.0 8.0 0.00 0.15 0.00 94 1019.1
20260507110529 58 19 6.0 9.0 0.00 0.15 0.00 94 1019.0
20260507105551 58 42 5.0 10.0 0.00 0.15 0.00 93 1018.7
20260507105513 58 13 5.0 9.0 0.00 0.15 0.00 93 1018.3